Regional Weather Roundup
Issued by NWS Green Bay, WI

Home | Current Version | Previous Version | Text Only | Print | Product List | Glossary On
Versions: 1 2 3 4 5 6 7 8 9 10 11 12 13 14 15 16 17 18 19 20 21 22 23 24 25 26 27 28 29 30 31 32 33 34 35 36 37 38 39 40 41 42 43 44 45 46 47 48 49 50
000
ASUS43 KGRB 231800
RWRGRB

NORTH-CENTRAL AND NORTHEAST WISCONSIN REGIONAL WEATHER ROUNDUP
NATIONAL WEATHER SERVICE GREEN BAY WI
100 PM CDT TUE AUG 23 2016

WIZ005-009-010>012-018-019-231900-
NORTH CENTRAL WISCONSIN

CITY           SKY/WX    TMP DP  RH WIND       PRES   REMARKS
IRONWOOD       SUNNY     81  64  56 S14G23    29.96S
MANITOWISH WTR NOT AVBL
ARBOR VITAE    NOT AVBL
EAGLE RIVER    NOT AVBL
LAND O LAKES   NOT AVBL
RHINELANDER    SUNNY     78  64  61 S13G21    30.06F
PHILLIPS       SUNNY     78  65  65 SW13G21   30.02S
ANTIGO         NOT AVBL
TOMAHAWK       NOT AVBL
MERRILL        SUNNY     78  65  64 SW12G17   30.07S
$$

WIZ013-073-231900-
NORTHEAST WISCONSIN

CITY           SKY/WX    TMP DP  RH WIND       PRES   REMARKS
IRON MOUNTAIN  SUNNY     79  62  56 S13       30.06F
MARINETTE      SUNNY    N/A N/A N/A SW13G20   30.09F
$$

WIZ017-030-035>037-045-231900-
CENTRAL WISCONSIN

CITY           SKY/WX    TMP DP  RH WIND       PRES   REMARKS
MEDFORD        NOT AVBL
WAUSAU         SUNNY     77  62  59 SW13      30.06F
MOSINEE        NOT AVBL
MARSHFIELD     PTSUNNY   79  63  57 S14       30.07S
WISC RAPIDS    PTSUNNY   80  64  58 SW12G18   30.10S
STEVENS POINT  NOT AVBL
WAUPACA        NOT AVBL
SHAWANO        NOT AVBL
CLINTONVILLE   SUNNY     81  61  50 S13       30.09F
WAUTOMA        CLOUDY    80  64  58 S12G20    30.10F
$$

WIZ038-039-048-051-231900-
FOX VALLEY

CITY           SKY/WX    TMP DP  RH WIND       PRES   REMARKS
NWS GREEN BAY  SUNNY     79  64  60 S13G21    30.11F
APPLETON       PTSUNNY   79  57  47 SW16      30.11F
OSHKOSH        MOSUNNY   79  62  56 S15G21    30.11F
FOND DU LAC    MOSUNNY   78  63  59 MISG      30.12F
$$

WIZ022-050-052-231900-
EAST CENTRAL WISCONSIN

CITY           SKY/WX    TMP DP  RH WIND       PRES   REMARKS
EPHRAIM        FAIR      78  65  64 W7        30.09F
WASHINGTON ISL NOT AVBL
STURGEON BAY   SUNNY     80  62  54 S13       30.11F
MANITOWOC      NOT AVBL
SHEBOYGAN      MOSUNNY   80  60  50 S14       30.14F
$$

LMZ563-521-522-541>543-231900-
LAKESHORE

STATION/POSITION TIME  TEMP    WIND        PRES    VSBY  WAVE
                       AIR SEA DIR/SP/G                  HT/PER
                 (UTC) (F)     (DEG/KT/KT) (MB)    (MI)  (FT/S)
SHEBOYGAN LKSHOR 1700   65     170/ 17/ 18 1021.2F
KEWAUNEE LKSHORE 1700   65     180/ 11/ 12 1020.0F
NORTHPORT PIER   1700   78     150/  7/ 13 1019.0F
N MID LAKE BUOY  1650   71 71  210/ 19/ 23 1018.8F         5/ 6
S GREEN BAY BUOY 1700   75 73  200/ 14/ 17 1019.1F
CHAMBERS ISLAND  1700   75     190/  8/ 17 1019.0F
MENOMINEE LKSHOR 1700   75     190/ 11/ 15 1018.5F
$$




USA.gov is the U.S. government's official web portal to all federal, state and local government web resources and services.